Location: Prairie Dale
(45.6972°N, 104.5033°W)
Time: 16:30:42
(UTC+00:00)

EO-79 - Pass Details

Date: 09 July 2022
Orbit: 588 x 603 km, 98.0° (Epoch: 17 August)

Event Time Altitude Azimuth Distance (km) Brightness Sun altitude
Rises 10:20:02 0° 353° (N) 2,864 ? -8.6°
Reaches altitude 10° 10:23:36 10° 321° (NW) 1,957 ? -8.2°
Maximum altitude 10:25:03 12° 301° (WNW) 1,850 ? -8.0°
Drops below altitude 10° 10:26:30 10° 281° (W) 1,954 ? -7.8°
Enters shadow 10:28:28 - 260° (W) 2,367 ? -7.6°
